SL-16 DEB, 22394

Orbit data source: Space-Track

SL-16 DEB, 22394 is space debris in LEO originally from a launch on Fri, 25 Dec 1992 UTC launched from the Tyuratam Missile And Space Complex (TTMTR). Debris objects in space refer to the collection of defunct objects orbiting the Earth. Examples of debris include non-operational satellites, rocket bodies, and fragments generated from explosions, collisions, or faulty payload assembly.

Loading next visibility...
Identifier
22394, 1992-093CK
Orbit
LEO
Country
Flag of CISCIS
Related business
Manufacturer
Unknown
Mission
Spacecraft
Bus & Motor
Unknown
Mass
Unknown
Launch date (UTC)
1992-12-25 (33 years ago)
Launch vehicle
Unknown
Launch site
Tyuratam Missile And Space Complex (TTMTR)
Object type
Payload
Rocket body
Debris
Shape & HBR
Unknown shape, 0.4 m
Radar Cross Section
Medium (>0.1 m² and <1 m²)

Expand to show TLE details & history
Last TLE update: 8 hours ago

TLE from 8 hours ago
0 SL-16 DEB
1 22394U 92093CK  25353.18338957  .00001154  00000-0  65592-3 0  9996
2 22394  71.2767 293.1958 0073738 326.2487  33.3951 14.10530527685774
Epoch: 2025-12-19T04:24Z
TLE epoch observation values (Epoch: 2025-12-19T04:24:04.858Z)
Latitude
-0.00004°
Longitude
139.14735°
Altitude
815.539 km
Speed
7.469 km/s
True Right ascension
19h 32m 46s
True Declination
0° 00' 00"
Sunlit
Object was in daylight at epoch
Visualization orbit readout
Latitude
Unknown
Longitude
Unknown
Altitude
Unknown
Speed
Unknown
Apparent Right ascension
Unknown
Apparent Declination
Unknown
Sunlit
N/A
Visualization observer readout
Local Sidereal Time
11:27:28
Azimuth
Unknown
Elevation
Unknown
Doppler factor
Unknown
Orbital elements
Apogee altitude
908.798 km
Perigee altitude
802.12 km
Semi-major axis
7,233.596 km
Eccentricity
0.00737
Inclination
71.2767°
RAAN
293.1958°
Arg. of periapsis
326.2487°
True anomaly
33.86378°
Mean anomaly
33.3951°
Eccentric anomaly
33.62908°
Mean motion
3.52786 °/min
Orbital period
102.04 mins
BSTAR
0.00065592
Loading maneuver chart data...
Computing Atmospheric mass density...
Loading historical data...
Loading historical data...
Loading historical data...
Loading historical data...
Loading historical data...
Loading historical data...
Loading historical data...

Documentation

Showing up to 5 results
|